Location: Newark
(40.9833°N, 0.0333°W)
Time: 07:49:46
(UTC+00:00)

Transit 4A - Pass Details

Date: 02 November 2020
Orbit: 862 x 982 km, 66.8° (Epoch: 28 November)

Event Time Altitude Azimuth Distance (km) Brightness Sun altitude
Rises 12:28:53 0° 167° (SSE) 3,569 11.8 33.1°
Reaches altitude 10° 12:31:58 10° 152° (SSE) 2,651 11.1 32.9°
Maximum altitude 12:36:30 22° 105° (ESE) 1,972 9.8 32.7°
Drops below altitude 10° 12:41:08 10° 57° (ENE) 2,715 10.0 32.5°
Sets 12:44:18 0° 43° (NE) 3,679 10.6 32.3°
